This demonstration page uses our WeatherBlox Daily Observations layout. Learn more.

Left ArrowRight Arrow

44.89941, -97.11507

Hourly Observations for March 21, 2017

Temp ( °F °C ) Dew Point ( °F °C ) Humidity (%) Winds ( mph kmh ) Pressure ( in mb ) Visibility ( mi km ) Precip ( " mm )
12:53 am 00:53 Clear 33 0.6 23 -5 66 66 N 12 19 30.35 1028 10 16 0.00 0.00
1:53 am 01:53 Clear 32 0 22 -5.6 66 66 N 16 26 30.35 1028 10 16 0.00 0.00
2:53 am 02:53 Clear 30 -1.1 24 -4.4 79 79 NNE 17 28 30.38 1029 10 16 0.00 0.00
3:53 am 03:53 Partly Cloudy 27 -2.8 22 -5.6 81 81 NNE 17 28 30.39 1029 10 16 0.00 0.00
4:53 am 04:53 Clear 25 -3.9 20 -6.7 81 81 NNE 13 20 30.41 1030 10 16 0.00 0.00
5:53 am 05:53 Clear 25 -3.9 19 -7.2 78 78 N 14 22 30.43 1031 10 16 0.00 0.00
6:16 am 06:16 Mostly Cloudy 24 -4.4 19 -7.2 81 81 N 14 22 30.50 1033 10 16 0.00 0.00
6:53 am 06:53 Partly Cloudy 24 -4.4 18 -7.8 77 77 NNE 14 22 30.45 1031 10 16 0.00 0.00
7:53 am 07:53 Cloudy 22 -5.6 17 -8.3 82 82 NNE 13 20 30.48 1032 10 16 0.00 0.00
8:53 am 08:53 Cloudy 22 -5.6 14 -10 71 71 NNE 16 26 30.50 1033 10 16 0.00 0.00
9:53 am 09:53 Cloudy 22 -5.6 13 -10.6 68 68 NNE 14 22 30.54 1034 10 16 0.00 0.00
10:53 am 10:53 Cloudy 23 -5 13 -10.6 65 65 NNE 15 24 30.55 1035 10 16 0.00 0.00
11:53 am 11:53 Cloudy 25 -3.9 13 -10.6 60 60 N 15 24 30.55 1035 10 16 0.00 0.00
12:53 pm 12:53 Cloudy 27 -2.8 14 -10 58 58 NNE 15 24 30.54 1034 10 16 0.00 0.00
1:53 pm 13:53 Mostly Cloudy 30 -1.1 16 -8.9 56 56 NNE 13 20 30.53 1034 10 16 0.00 0.00
2:53 pm 14:53 Mostly Cloudy 31 -0.6 16 -8.9 54 54 NE 14 22 30.51 1033 10 16 0.00 0.00
3:53 pm 15:53 Sunny 31 -0.6 15 -9.4 52 52 NNE 16 26 30.51 1033 10 16 0.00 0.00
4:53 pm 16:53 Sunny 31 -0.6 16 -8.9 54 54 NNE 16 26 30.50 1033 10 16 0.00 0.00
5:53 pm 17:53 Sunny 30 -1.1 15 -9.4 54 54 NE 12 19 30.51 1033 10 16 0.00 0.00
6:53 pm 18:53 Sunny 27 -2.8 13 -10.6 55 55 NE 14 22 30.52 1034 10 16 0.00 0.00
7:53 pm 19:53 Clear 23 -5 13 -10.6 65 65 NE 12 19 30.54 1034 10 16 0.00 0.00
8:53 pm 20:53 Clear 22 -5.6 14 -10 71 71 NE 9 15 30.56 1035 10 16 0.00 0.00
9:53 pm 21:53 Clear 20 -6.7 14 -10 78 78 NE 8 13 30.57 1035 10 16 0.00 0.00
10:53 pm 22:53 Clear 20 -6.7 14 -10 78 78 NE 9 15 30.56 1035 10 16 0.00 0.00
11:53 pm 23:53 Clear 17 -8.3 13 -10.6 84 84 NNE 5 7 30.57 1035 10 16 0.00 0.00

Powered by AerisWeather